Home > Weather > Baden > Past weeks

Flag for Austria Weather for the Past 2 Weeks in Baden, Lower Austria, Austria

Now
48 °F

Rain. Partly sunny.


Feels Like: 42 °F
Forecast: 46 / 62 °F
Wind: 18 mph from Northwest

Location: Vienna Schwechat-Flughafen Airport

Current Time: May 4, 2016 at 8:34:57 AM

Latest Report: May 4, 2016 at 7:20 AM


Visibility: 4 mi

Pressure: 30.07 "Hg

Humidity: 94%

Dew Point: 46 °F

Location of BadenLocation

Historic Weather in Baden — Graph

°F

Baden Temperature Yesterday

Maximum temperature yesterday: 61 °F (at 2:20 PM)
Minimum temperature yesterday: 50 °F (at 5:20 AM)
Average temperature yesterday: 55 °F

High & Low Weather Summary for the Past Weeks

 TemperatureHumidityPressure
High68 °F (Apr 22, 2:50 PM)100% (Apr 27, 6:20 AM)30.36 "Hg (Apr 27, 6:20 AM)
Low30 °F (Apr 26, 3:50 AM)29% (Apr 26, 1:50 PM)29.59 "Hg (Apr 23, 6:50 PM)
Average50 °F64%29.98 "Hg
* Reported Apr 19 6:20 AM — May 4 6:50 AM, Baden, Weather by CustomWeather, © 2016

Note: Actual official high and low records may vary slightly from our data, if they occured in-between our weather recording intervals... More about our weather records

Advertising

Baden Weather History for the Previous 24 Hours

Scroll right to see more
 ConditionsComfort  
Time TempWeatherWind HumidityBarometerVisibility
6:50 AM
Wed, May 4
50 °FLight rain. Partly sunny.18 mph88%30.07 "HgN/A
6:20 AM50 °FLight rain. Partly cloudy.16 mph94%30.04 "HgN/A
5:50 AM50 °FRain. Partly cloudy.20 mph94%30.04 "HgN/A
5:20 AM50 °FRain. Partly cloudy.18 mph94%30.04 "Hg6 mi
4:50 AM50 °FRain. Partly cloudy.17 mph94%30.04 "HgN/A
4:20 AM52 °FLight rain. Partly cloudy.16 mph88%30.01 "HgN/A
3:50 AM52 °FLight rain. Partly cloudy.18 mph88%30.01 "HgN/A
3:20 AM52 °FLight rain. Passing clouds.17 mph88%30.01 "HgN/A
2:50 AM52 °FLight rain. Partly cloudy.15 mph94%29.98 "HgN/A
2:20 AM52 °FLight rain. Partly cloudy.15 mph94%29.98 "HgN/A
1:50 AM52 °FLight rain. Partly cloudy.16 mph94%29.98 "HgN/A
1:20 AM52 °FLight rain. Partly cloudy.14 mph88%29.98 "HgN/A
12:50 AM52 °FPassing clouds.14 mph88%29.98 "HgN/A
12:20 AM52 °FPassing clouds.15 mph88%29.98 "HgN/A
11:50 PM
Tue, May 3
52 °FLight rain. Passing clouds.15 mph88%29.98 "HgN/A
11:20 PM50 °FLight rain. Passing clouds.16 mph94%29.98 "HgN/A
10:50 PM50 °FLight rain. Passing clouds.18 mph94%29.98 "HgN/A
10:20 PM52 °FSprinkles. Passing clouds.18 mph88%29.95 "HgN/A
9:50 PM52 °FRain showers. Passing clouds.17 mph88%29.95 "HgN/A
9:20 PM54 °FRain showers. Passing clouds.15 mph82%29.95 "HgN/A
8:50 PM57 °FSunny.15 mph59%29.95 "Hg10 mi
8:20 PM57 °FPartly sunny.13 mph63%29.92 "HgN/A
7:50 PM57 °FPartly sunny.13 mph67%29.92 "HgN/A
7:20 PM57 °FBroken clouds.15 mph67%29.92 "HgN/A
6:50 PM59 °FBroken clouds.14 mph63%29.92 "HgN/A
6:20 PM59 °FScattered clouds.14 mph59%29.89 "HgN/A
5:50 PM61 °FScattered clouds.14 mph55%29.92 "HgN/A
5:20 PM61 °FPartly sunny.15 mph55%29.92 "HgN/A
4:50 PM59 °FPartly sunny.16 mph63%29.92 "HgN/A
4:20 PM61 °FScattered clouds.16 mph55%29.92 "HgN/A
3:50 PM61 °FScattered clouds.18 mph55%29.92 "HgN/A
3:20 PM59 °FPartly sunny.13 mph68%29.92 "HgN/A
2:50 PM59 °FPartly sunny.15 mph68%29.92 "HgN/A
2:20 PM61 °FPartly sunny.15 mph63%29.92 "HgN/A
1:20 PM57 °FPartly sunny.10 mph67%29.95 "HgN/A
12:50 PM57 °FPartly sunny.15 mph67%29.95 "HgN/A
11:50 AM55 °FLight rain. Partly sunny.15 mph77%29.98 "HgN/A
11:20 AM55 °FPartly sunny.17 mph72%29.98 "HgN/A
10:50 AM57 °FPartly sunny.20 mph67%29.98 "HgN/A
10:20 AM57 °FPartly sunny.18 mph67%29.98 "HgN/A
9:50 AM57 °FBroken clouds.15 mph72%29.98 "HgN/A
9:20 AM55 °FPartly sunny.16 mph67%29.98 "HgN/A
8:50 AM55 °FPartly sunny.14 mph72%29.98 "HgN/A
8:20 AM55 °FPartly sunny.14 mph67%29.98 "HgN/A
Weather by CustomWeather, © 2016

See weather overviewHow to use our weather pages